[[{"header":{"parameterUnit":"m.s-1","parameterCategory":1,"la1":30.2991,"la2":30.254,"lo1":-89.0895,"lo2":-89.0444,"dy":0.0017,"dx":0.0017,"nx":28,"ny":28,"refTime":"2023-08-15T09:00:00:Z","depth":0,"parameterNumber":2,"parameterNumberName":"U-component_of_WINDS"},"data":[0,0,0,0,0,0,0,0,0,0,0,0,0,0,0,0,0,0,0,0,0,0,0,0,0,0,0,0,0,0,0,0,0,0,0,0,0,0,0,0,0,0,0,0,0,0,0,0,0,0,0,0,0,0,0,0,0,0,-3.1666,-3.1669,0,-3.1923,-3.1926,-3.1929,-3.1907,-3.1903,-3.1899,-3.1896,-3.2165,-3.2175,-3.2186,0,0,0,0,0,0,0,0,0,0,0,0,0,-3.1162,-3.1171,-3.1666,-3.1669,-3.1672,-3.1922,-3.1926,-3.1929,-3.1908,-3.1903,-3.1898,-3.1894,-3.2161,-3.2174,-3.2187,0,0,0,0,0,0,0,0,0,0,0,0,0,-3.1396,-3.1174,-3.1665,-3.1691,-3.1696,-3.1922,-3.1926,-3.193,-3.1909,-3.1903,-3.1897,-3.1892,-3.2157,-3.2173,-3.2189,-3.2406,0,0,-3.2238,-3.2245,0,0,0,0,0,0,0,0,-3.1383,-3.1415,-3.1684,-3.169,-3.1696,-3.1877,-3.1847,-3.209,-3.191,-3.1828,-3.1896,-3.1889,-3.2074,-3.2097,-3.2158,-3.2419,-3.243,-3.224,-3.2249,-3.2256,-3.2261,0,0,0,0,0,0,0,-3.1367,-3.1404,-3.1768,-3.1688,-3.1696,-3.1692,-3.1719,-3.1893,-3.1981,-3.1835,-3.1834,-3.1865,-3.2076,-3.2142,-3.2164,-3.2434,-3.2239,-3.2253,-3.2263,-3.227,-3.2889,-3.2895,0,0,0,0,0,0,-3.1344,-3.139,-3.1759,-3.1775,-3.1522,-3.1706,-3.1736,-3.1825,-3.1979,-3.1997,-3.1869,-3.1863,-3.2118,-3.2145,-3.2173,-3.244,-3.2256,-3.2271,-3.2281,-3.2882,-3.289,-3.2897,0,0,0,0,0,0,-3.1333,-3.1377,-3.1749,-3.1583,-3.163,-3.1721,-3.1821,-3.1833,-3.1899,-3.2005,-3.2021,-3.1921,-3.2114,-3.2151,-3.2348,-3.2449,-3.2279,-3.2293,-3.2874,-3.2884,-3.2894,-3.2974,0,0,0,0,0,0,-3.1319,-3.1373,-3.1455,-3.1585,-3.1639,-3.1918,-3.1827,-3.1842,-3.1927,-3.192,-3.2057,-3.2074,-3.2112,-3.2324,-3.2365,-3.2468,-3.2306,-3.2866,-3.2879,-3.2891,-3.2963,-3.2985,-3.3005,0,0,0,0,0,-3.1301,-3.1468,-3.146,-3.1504,-3.1743,-3.1924,-3.1955,-3.1994,-3.1935,-3.2019,-3.2087,-3.207,-3.2431,-3.2345,-3.239,-3.25,-3.2859,-3.2875,-3.289,-3.2953,-3.2981,-3.3004,0,0,0,0,0,0,-3.135,-3.1486,-3.1478,-3.1692,-3.1796,-3.192,-3.2028,-3.2022,-3.2147,-3.2136,-3.218,-3.2211,-3.2411,-3.2475,-3.2376,-3.272,-3.2638,-3.2663,-3.2671,-3.2698,-3.2718,-3.27,-3.232,0,0,0,0,0,-3.1385,-3.1519,-3.1631,-3.181,-3.1862,-3.1936,-3.2016,-3.2037,-3.2148,-3.2193,-3.2275,-3.2385,-3.2523,-3.2614,-3.2747,-3.2971,-3.3002,-3.3069,-3.309,-3.3107,-3.3129,-3.3254,-3.3286,-3.2947,-3.2947,-3.2947,0,0,-3.1461,-3.1552,-3.1634,-3.1822,-3.1905,-3.2045,-3.1974,-3.2124,-3.2229,-3.2216,-3.2408,-3.2472,-3.2598,-3.2811,-3.2908,-3.2871,-3.3229,-3.3126,-3.3139,-3.3152,-3.3273,-3.3305,-3.3334,-3.2957,-3.2955,-3.2954,0,0,-3.167,-3.1751,-3.1909,-3.1994,-3.2121,-3.2169,-3.2207,-3.2332,-3.2374,-3.2567,-3.2561,-3.2687,-3.2924,-3.3014,-3.3091,-3.3335,-3.3325,-3.3377,-3.3488,-3.361,-3.3637,-3.3661,-3.375,-3.3781,-3.3398,-3.3398,-3.3398,0,-3.1749,-3.1957,-3.1992,-3.2144,-3.2228,-3.2221,-3.2383,-3.2464,-3.2629,-3.2688,-3.2642,-3.294,-3.3024,-3.3259,-3.3318,-3.338,-3.3427,-3.3363,-3.363,-3.3654,-3.3677,-3.3763,-3.3796,-3.3404,-3.3403,-3.3403,-3.3402,0,-3.2048,-3.2193,-3.2306,-3.2464,-3.256,-3.2716,-3.2777,-3.2871,-3.2883,-3.2936,-3.3134,-3.3234,-3.3388,-3.3445,-3.3459,-3.3683,-3.3656,-3.3619,-3.3539,-3.3715,-3.3796,-3.3829,-3.3412,-3.341,-3.3408,-3.3407,0,0,-3.2297,-3.2471,-3.2512,-3.2585,-3.2724,-3.2838,-3.2995,-3.3144,-3.3224,-3.3338,-3.3473,-3.3673,-3.3641,-3.3728,-3.3752,-3.3859,-3.4049,-3.3811,-3.3814,-3.3853,-3.4304,-3.4332,-3.4369,-3.4042,-3.4048,-3.4053,-3.4294,0,-3.2521,-3.2797,-3.2834,-3.3079,-3.3215,-3.321,-3.3347,-3.3449,-3.3503,-3.3628,-3.3688,-3.383,-3.3776,-3.3829,-3.3934,-3.4003,-3.414,-3.3986,-3.417,-3.4176,-3.414,-3.4411,-3.4441,-3.4664,-3.4326,-3.4332,-3.4336,0,-3.282,-3.2941,-3.32,-3.3322,-3.3381,-3.3503,-3.3643,-3.3761,-3.3877,-3.3909,-3.4007,-3.4018,-3.4183,-3.4093,-3.4322,-3.4216,-3.4294,-3.4339,-3.4349,-3.4369,-3.4268,-3.4441,-3.4735,-3.477,-3.4386,-3.4382,-3.4378,0,-3.2978,-3.3206,-3.339,-3.3452,-3.3599,-3.3685,-3.3751,-3.386,-3.3948,-3.4071,-3.4129,-3.427,-3.4348,-3.4459,-3.4508,-3.4438,-3.4735,-3.4649,-3.4769,-3.4768,-3.4833,-3.4829,-3.5146,-3.488,-3.4879,-3.4878,-3.4878,0,-3.3227,-3.3386,-3.3463,-3.3577,-3.3756,-3.3797,-3.3973,-3.4036,-3.4134,-3.4262,-3.4266,-3.4386,-3.4443,-3.4573,-3.4613,-3.4798,-3.4833,-3.4865,-3.4874,-3.4866,-3.4862,-3.4919,-3.4906,-3.4887,-3.4885,-3.4884,-3.4882,0,-3.3434,-3.3492,-3.3693,-3.3815,-3.385,-3.3976,-3.4082,-3.4193,-3.4246,-3.4408,-3.4448,-3.4532,-3.4685,-3.4744,-3.4931,-3.4958,-3.5172,-3.5168,-3.5133,-3.5136,-3.5253,-3.5242,-3.562,-3.5672,-3.5369,-3.5372,-3.5374,0,-3.3589,-3.3711,-3.3846,-3.3931,-3.3999,-3.4136,-3.4225,-3.4271,-3.4364,-3.4506,-3.4601,-3.4753,-3.4877,-3.5122,-3.5201,-3.5345,-3.5345,-3.5468,-3.5367,-3.5356,-3.535,-3.5343,-3.5357,-3.5487,-3.549,-3.5492,-3.5494,0,-3.386,-3.3883,-3.401,-3.4149,-3.4255,-3.4367,-3.4475,-3.4545,-3.4608,-3.4713,-3.4868,-3.4964,-3.5155,-3.5307,-3.5454,-3.5524,-3.5522,-3.5525,-3.5561,-3.5555,-3.553,-3.5547,-3.5186,-3.5517,-3.5515,-3.5513,-3.5512,-3.5511,-3.4048,-3.4157,-3.4269,-3.4411,-3.4498,-3.4599,-3.471,-3.4777,-3.4907,-3.5064,-3.5084,-3.5251,-3.5366,-3.5564,-3.564,-3.5773,-3.5741,-3.5792,-3.5806,-3.5818,-3.5827,-3.5507,-3.58,-3.5799,-3.5799,-3.5798,-3.5798,0,-3.432,-3.4392,-3.4523,-3.4674,-3.4787,-3.4772,-3.4892,-3.4988,-3.5134,-3.5241,-3.5362,-3.5542,-3.569,-3.578,-3.5929,-3.6018,-3.6021,-3.6056,-3.6051,-3.6068,-3.5846,-3.5801,-3.6052,-3.6052,-3.6052,-3.6051,-3.6051,-3.6051,-3.4475,-3.4659,-3.4696,-3.4924,-3.4995,-3.5158,-3.5228,-3.5323,-3.5408,-3.5608,-3.5729,-3.5787,-3.5888,-3.6044,-3.6179,-3.6202,-3.6258,-3.6296,-3.6317,-3.6109,-3.6083,-3.6058,-3.6016,-3.6308,-3.6308,-3.6528,-3.653,-3.6532]},{"header":{"parameterUnit":"m.s-1","parameterCategory":1,"la1":30.2991,"la2":30.254,"lo1":-89.0895,"lo2":-89.0444,"dy":0.0017,"dx":0.0017,"nx":28,"ny":28,"refTime":"2023-08-15T09:00:00:Z","depth":0,"parameterNumber":3,"parameterNumberName":"V-component_of_WINDS"},"data":[0,0,0,0,0,0,0,0,0,0,0,0,0,0,0,0,0,0,0,0,0,0,0,0,0,0,0,0,0,0,0,0,0,0,0,0,0,0,0,0,0,0,0,0,0,0,0,0,0,0,0,0,0,0,0,0,0,0,-4.1967,-4.1967,0,-4.1892,-4.1891,-4.189,-4.1767,-4.1765,-4.1762,-4.176,-4.1684,-4.1684,-4.1684,0,0,0,0,0,0,0,0,0,0,0,0,0,-4.2005,-4.2005,-4.1967,-4.1966,-4.1966,-4.1892,-4.1891,-4.189,-4.1767,-4.1765,-4.1762,-4.1759,-4.1684,-4.1684,-4.1684,0,0,0,0,0,0,0,0,0,0,0,0,0,-4.1965,-4.2005,-4.1968,-4.1895,-4.1888,-4.1892,-4.1891,-4.189,-4.1768,-4.1764,-4.1761,-4.1758,-4.1684,-4.1684,-4.1684,-4.1752,0,0,-4.1684,-4.1684,0,0,0,0,0,0,0,0,-4.1967,-4.1964,-4.1907,-4.19,-4.1892,-4.1835,-4.1876,-4.1844,-4.1769,-4.1814,-4.176,-4.1756,-4.1737,-4.1732,-4.1726,-4.1749,-4.1745,-4.1684,-4.1684,-4.1684,-4.1684,0,0,0,0,0,0,0,-4.197,-4.1966,-4.1937,-4.1906,-4.1897,-4.1866,-4.1857,-4.1869,-4.1795,-4.1809,-4.18,-4.1793,-4.1732,-4.1726,-4.1723,-4.1744,-4.1684,-4.1684,-4.1684,-4.1684,-4.1816,-4.1819,0,0,0,0,0,0,-4.1984,-4.1969,-4.194,-4.1935,-4.1922,-4.1869,-4.1858,-4.1857,-4.1795,-4.1782,-4.1796,-4.1788,-4.1727,-4.1723,-4.172,-4.1793,-4.1684,-4.1684,-4.1684,-4.1812,-4.1817,-4.182,0,0,0,0,0,0,-4.1985,-4.1982,-4.1943,-4.195,-4.1942,-4.1872,-4.1871,-4.1857,-4.1851,-4.1785,-4.1771,-4.1803,-4.1725,-4.172,-4.1744,-4.1789,-4.1684,-4.1684,-4.1808,-4.1814,-4.1818,-4.1943,0,0,0,0,0,0,-4.1986,-4.1983,-4.2009,-4.1951,-4.1942,-4.197,-4.1874,-4.1858,-4.1851,-4.1839,-4.1788,-4.1776,-4.1721,-4.1745,-4.1744,-4.1787,-4.1684,-4.1804,-4.1811,-4.1817,-4.1934,-4.1952,-4.1966,0,0,0,0,0,-4.1988,-4.2048,-4.2011,-4.2008,-4.1973,-4.1972,-4.1967,-4.1903,-4.1855,-4.188,-4.1837,-4.1777,-4.1784,-4.1748,-4.1747,-4.1791,-4.1801,-4.1809,-4.1816,-4.1927,-4.1948,-4.1966,0,0,0,0,0,0,-4.2114,-4.2039,-4.1997,-4.204,-4.2014,-4.1952,-4.1981,-4.1928,-4.1915,-4.1904,-4.1826,-4.1815,-4.1849,-4.1822,-4.1783,-4.1852,-4.1783,-4.1791,-4.1868,-4.1887,-4.1903,-4.1908,-4.1685,0,0,0,0,0,-4.2147,-4.2152,-4.2087,-4.2131,-4.2119,-4.2053,-4.205,-4.2003,-4.1972,-4.196,-4.1919,-4.1892,-4.1887,-4.1886,-4.1878,-4.193,-4.1915,-4.1959,-4.1975,-4.1988,-4.1996,-4.2018,-4.2036,-4.1846,-4.1846,-4.1845,0,0,-4.2214,-4.2174,-4.2183,-4.2155,-4.2129,-4.2135,-4.2044,-4.2056,-4.206,-4.1962,-4.1982,-4.1951,-4.1915,-4.1952,-4.1967,-4.1931,-4.2045,-4.1998,-4.2009,-4.2009,-4.2028,-4.2046,-4.2062,-4.1851,-4.185,-4.1849,0,0,-4.2341,-4.2312,-4.2344,-4.2319,-4.228,-4.2235,-4.2243,-4.2188,-4.2163,-4.2182,-4.2108,-4.2111,-4.2106,-4.2082,-4.207,-4.2184,-4.2128,-4.2184,-4.2267,-4.229,-4.2305,-4.2318,-4.2356,-4.2371,-4.2192,-4.2192,-4.2193,0,-4.243,-4.2437,-4.2367,-4.2383,-4.2372,-4.2283,-4.2314,-4.2293,-4.2254,-4.2249,-4.2209,-4.2198,-4.2168,-4.2197,-4.2225,-4.2218,-4.2223,-4.219,-4.2308,-4.2321,-4.2331,-4.2367,-4.2382,-4.2199,-4.2198,-4.2198,-4.2197,0,-4.2547,-4.2554,-4.2585,-4.2548,-4.254,-4.2564,-4.2497,-4.2498,-4.2451,-4.241,-4.2428,-4.2388,-4.237,-4.2373,-4.2329,-4.2396,-4.2374,-4.2323,-4.2252,-4.2358,-4.239,-4.2403,-4.2209,-4.2207,-4.2205,-4.2203,0,0,-4.2752,-4.2674,-4.2687,-4.2668,-4.2617,-4.262,-4.2639,-4.262,-4.2621,-4.2597,-4.2609,-4.2605,-4.2556,-4.2542,-4.2493,-4.2514,-4.2604,-4.2459,-4.2456,-4.2485,-4.2672,-4.271,-4.2727,-4.2566,-4.2568,-4.257,-4.2674,0,-4.2866,-4.2894,-4.2831,-4.2873,-4.2877,-4.2791,-4.2807,-4.2777,-4.2739,-4.2736,-4.2693,-4.2691,-4.2628,-4.2618,-4.2634,-4.259,-4.264,-4.2581,-4.2575,-4.2576,-4.2586,-4.2744,-4.2785,-4.2885,-4.2687,-4.2689,-4.269,0,-4.3004,-4.2985,-4.3028,-4.2972,-4.2972,-4.2987,-4.2963,-4.2962,-4.2925,-4.2896,-4.2879,-4.2821,-4.2833,-4.2766,-4.2782,-4.2743,-4.2737,-4.2714,-4.2716,-4.2712,-4.2639,-4.2743,-4.2916,-4.293,-4.271,-4.2708,-4.2707,0,-4.3146,-4.3132,-4.3155,-4.3142,-4.3078,-4.309,-4.3064,-4.3024,-4.3016,-4.2995,-4.2988,-4.297,-4.2959,-4.2945,-4.2883,-4.284,-4.2905,-4.2833,-4.2879,-4.288,-4.2896,-4.2895,-4.3068,-4.2895,-4.2895,-4.2894,-4.2894,0,-4.328,-4.331,-4.3217,-4.3232,-4.3261,-4.3187,-4.3218,-4.3183,-4.3148,-4.3153,-4.3078,-4.3084,-4.3002,-4.2999,-4.295,-4.2969,-4.2965,-4.294,-4.2927,-4.2946,-4.2949,-4.294,-4.2931,-4.2898,-4.2897,-4.2897,-4.2896,0,-4.3444,-4.3384,-4.3403,-4.334,-4.3325,-4.3349,-4.3295,-4.3304,-4.3261,-4.3267,-4.3265,-4.3196,-4.3187,-4.3124,-4.3102,-4.3069,-4.3105,-4.3079,-4.3117,-4.3108,-4.3157,-4.3152,-4.3329,-4.3347,-4.3164,-4.3166,-4.3167,0,-4.3533,-4.3553,-4.3492,-4.3489,-4.3467,-4.3464,-4.3455,-4.3383,-4.3376,-4.3334,-4.3348,-4.3334,-4.3318,-4.3308,-4.3256,-4.3237,-4.3209,-4.3272,-4.3206,-4.3223,-4.3207,-4.3206,-4.3206,-4.3286,-4.3288,-4.329,-4.3292,0,-4.3696,-4.3665,-4.3654,-4.3633,-4.3624,-4.3604,-4.3579,-4.3581,-4.3501,-4.3496,-4.3487,-4.3475,-4.345,-4.3436,-4.3408,-4.338,-4.3322,-4.3313,-4.3322,-4.3341,-4.3362,-4.3349,-4.3154,-4.3309,-4.3307,-4.3306,-4.3305,-4.3304,-4.3824,-4.3836,-4.3795,-4.3785,-4.3758,-4.3736,-4.3741,-4.3697,-4.3688,-4.3662,-4.362,-4.3616,-4.3575,-4.3532,-4.3508,-4.3502,-4.3469,-4.3483,-4.3486,-4.349,-4.3499,-4.3364,-4.3497,-4.3497,-4.3496,-4.3495,-4.3495,0,-4.3981,-4.395,-4.3941,-4.3908,-4.39,-4.3846,-4.3815,-4.3811,-4.3808,-4.3776,-4.3761,-4.3748,-4.3733,-4.3679,-4.3657,-4.3663,-4.3636,-4.366,-4.3658,-4.3651,-4.3532,-4.3525,-4.3682,-4.3682,-4.3682,-4.3682,-4.3682,-4.3682,-4.4062,-4.408,-4.4044,-4.4047,-4.4014,-4.4009,-4.3996,-4.3974,-4.3947,-4.3936,-4.3923,-4.3888,-4.3845,-4.382,-4.3803,-4.3787,-4.3781,-4.3814,-4.3789,-4.3678,-4.366,-4.3643,-4.3636,-4.3814,-4.3814,-4.3908,-4.3909,-4.391]}]]